Time,TemperatureF,DewpointF,PressureIn,WindDirection,WindDirectionDegrees,WindSpeedMPH,WindSpeedGustMPH,Humidity,HourlyPrecipIn,Conditions,Clouds,dailyrainin,SoftwareType,DateUTC
2013-01-17 00:03:00,30.2,29.7,30.39,North,-999,0.0,0.0,98,0.00,,,-99.99,FreeWX-Wi 1.01,2013-01-17 08:03:00,
2013-01-17 00:08:00,30.2,29.7,30.39,North,-999,0.0,0.0,98,0.00,,,-99.99,FreeWX-Wi 1.01,2013-01-17 08:08:00,
2013-01-17 00:13:00,30.4,29.8,30.41,North,-999,0.0,0.0,98,0.00,,,-99.99,FreeWX-Wi 1.01,2013-01-17 08:13:00,
2013-01-17 00:18:00,30.6,30.0,30.41,North,-999,0.0,0.0,98,0.00,,,-99.99,FreeWX-Wi 1.01,2013-01-17 08:18:00,
2013-01-17 00:23:00,30.6,30.0,30.41,North,-999,0.0,0.0,98,0.00,,,-99.99,FreeWX-Wi 1.01,2013-01-17 08:23:00,
2013-01-17 00:28:00,30.6,30.0,30.41,North,-999,0.0,0.0,98,0.00,,,-99.99,FreeWX-Wi 1.01,2013-01-17 08:28:00,
2013-01-17 00:33:00,30.4,29.8,30.41,North,-999,0.0,0.0,98,0.00,,,-99.99,FreeWX-Wi 1.01,2013-01-17 08:33:00,
2013-01-17 00:38:00,30.2,29.7,30.41,North,-999,0.0,0.0,98,0.00,,,-99.99,FreeWX-Wi 1.01,2013-01-17 08:38:00,
2013-01-17 00:43:00,30.2,29.7,30.39,North,-999,0.0,0.0,98,0.00,,,-99.99,FreeWX-Wi 1.01,2013-01-17 08:43:00,
2013-01-17 00:48:00,30.0,29.5,30.39,North,-999,0.0,0.0,98,0.00,,,-99.99,FreeWX-Wi 1.01,2013-01-17 08:48:00,
2013-01-17 00:53:00,30.0,29.5,30.39,North,-999,0.0,0.0,98,0.00,,,-99.99,FreeWX-Wi 1.01,2013-01-17 08:53:00,
2013-01-17 00:58:00,30.0,29.5,30.39,North,-999,0.0,0.0,98,0.00,,,-99.99,FreeWX-Wi 1.01,2013-01-17 08:58:00,
2013-01-17 01:03:00,30.2,29.7,30.39,North,-999,0.0,0.0,98,0.00,,,-99.99,FreeWX-Wi 1.01,2013-01-17 09:03:00,
2013-01-17 01:08:00,30.0,29.5,30.39,North,-999,0.0,0.0,98,0.00,,,-99.99,FreeWX-Wi 1.01,2013-01-17 09:08:00,
2013-01-17 01:13:00,30.0,29.5,30.39,North,-999,0.0,0.0,98,0.00,,,-99.99,FreeWX-Wi 1.01,2013-01-17 09:13:00,
2013-01-17 01:18:00,30.2,29.7,30.39,North,-999,0.0,0.0,98,0.00,,,-99.99,FreeWX-Wi 1.01,2013-01-17 09:18:00,
2013-01-17 01:23:00,30.2,29.7,30.39,North,-999,0.0,0.0,98,0.00,,,-99.99,FreeWX-Wi 1.01,2013-01-17 09:23:00,
2013-01-17 01:28:00,30.4,29.8,30.39,North,-999,0.0,0.0,98,0.00,,,-99.99,FreeWX-Wi 1.01,2013-01-17 09:28:00,
2013-01-17 01:33:00,30.6,30.0,30.39,North,-999,0.0,0.0,98,0.00,,,-99.99,FreeWX-Wi 1.01,2013-01-17 09:33:00,
2013-01-17 01:38:00,30.6,30.0,30.39,North,-999,0.0,0.0,98,0.00,,,-99.99,FreeWX-Wi 1.01,2013-01-17 09:38:00,
2013-01-17 01:43:00,30.6,30.0,30.39,North,-999,0.0,0.0,98,0.00,,,-99.99,FreeWX-Wi 1.01,2013-01-17 09:43:00,
2013-01-17 01:48:00,30.6,30.0,30.39,North,-999,0.0,0.0,98,0.00,,,-99.99,FreeWX-Wi 1.01,2013-01-17 09:48:00,
2013-01-17 01:53:00,30.4,29.8,30.39,North,-999,0.0,0.0,98,0.00,,,-99.99,FreeWX-Wi 1.01,2013-01-17 09:53:00,
2013-01-17 01:58:00,30.2,29.7,30.41,North,-999,0.0,0.0,98,0.00,,,-99.99,FreeWX-Wi 1.01,2013-01-17 09:58:00,
2013-01-17 02:03:00,30.2,29.7,30.41,North,-999,0.0,0.0,98,0.00,,,-99.99,FreeWX-Wi 1.01,2013-01-17 10:03:00,
2013-01-17 02:08:00,29.8,29.3,30.41,North,-999,0.0,0.0,98,0.00,,,-99.99,FreeWX-Wi 1.01,2013-01-17 10:08:00,
2013-01-17 02:13:00,29.5,28.9,30.39,North,-999,0.0,0.0,98,0.00,,,-99.99,FreeWX-Wi 1.01,2013-01-17 10:13:00,
2013-01-17 02:18:00,29.3,28.8,30.39,North,-999,0.0,0.0,98,0.00,,,-99.99,FreeWX-Wi 1.01,2013-01-17 10:18:00,
2013-01-17 02:23:00,29.1,28.6,30.39,North,-999,0.0,0.0,98,0.00,,,-99.99,FreeWX-Wi 1.01,2013-01-17 10:23:00,
2013-01-17 02:28:00,29.3,28.8,30.39,North,-999,0.0,2.2,98,0.00,,,-99.99,FreeWX-Wi 1.01,2013-01-17 10:28:00,
2013-01-17 02:33:00,29.5,28.9,30.39,North,-999,0.0,0.0,98,0.00,,,-99.99,FreeWX-Wi 1.01,2013-01-17 10:33:00,
2013-01-17 02:38:00,30.0,29.5,30.39,North,-999,0.0,2.2,98,0.00,,,-99.99,FreeWX-Wi 1.01,2013-01-17 10:38:00,
2013-01-17 02:43:00,30.2,29.7,30.39,North,-999,0.0,2.2,98,0.00,,,-99.99,FreeWX-Wi 1.01,2013-01-17 10:43:00,
2013-01-17 02:48:00,30.4,29.8,30.39,North,-999,0.0,0.0,98,0.00,,,-99.99,FreeWX-Wi 1.01,2013-01-17 10:48:00,
2013-01-17 02:53:00,30.7,30.2,30.39,North,-999,0.0,3.1,98,0.00,,,-99.99,FreeWX-Wi 1.01,2013-01-17 10:53:00,
2013-01-17 02:58:00,30.7,30.2,30.39,North,-999,0.0,2.7,98,0.00,,,-99.99,FreeWX-Wi 1.01,2013-01-17 10:58:00,
2013-01-17 03:03:00,30.6,30.0,30.39,North,-999,0.0,0.0,98,0.00,,,-99.99,FreeWX-Wi 1.01,2013-01-17 11:03:00,
2013-01-17 03:08:00,30.6,30.0,30.39,North,-999,0.0,0.0,98,0.00,,,-99.99,FreeWX-Wi 1.01,2013-01-17 11:08:00,
2013-01-17 03:13:00,30.6,30.0,30.39,North,-999,0.0,0.0,98,0.00,,,-99.99,FreeWX-Wi 1.01,2013-01-17 11:13:00,
2013-01-17 03:18:00,30.4,29.8,30.39,North,-999,0.0,2.2,98,0.00,,,-99.99,FreeWX-Wi 1.01,2013-01-17 11:18:00,
2013-01-17 03:23:00,30.2,29.7,30.39,North,-999,0.0,0.0,98,0.00,,,-99.99,FreeWX-Wi 1.01,2013-01-17 11:23:00,
2013-01-17 03:28:00,30.2,29.7,30.39,North,-999,0.0,0.0,98,0.00,,,-99.99,FreeWX-Wi 1.01,2013-01-17 11:28:00,
2013-01-17 03:33:00,30.0,29.5,30.39,North,-999,0.0,0.0,98,0.00,,,-99.99,FreeWX-Wi 1.01,2013-01-17 11:33:00,
2013-01-17 03:38:00,30.0,29.5,30.39,North,-999,0.0,3.1,98,0.00,,,-99.99,FreeWX-Wi 1.01,2013-01-17 11:38:00,
2013-01-17 03:43:00,29.7,29.1,30.36,North,-999,0.0,2.7,98,0.00,,,-99.99,FreeWX-Wi 1.01,2013-01-17 11:43:00,
2013-01-17 03:48:00,29.7,29.1,30.36,North,-999,0.0,2.2,98,0.00,,,-99.99,FreeWX-Wi 1.01,2013-01-17 11:48:00,
2013-01-17 03:53:00,29.5,28.9,30.36,North,-999,0.0,0.0,98,0.00,,,-99.99,FreeWX-Wi 1.01,2013-01-17 11:53:00,
2013-01-17 03:58:00,29.5,28.9,30.36,North,-999,0.0,0.0,98,0.00,,,-99.99,FreeWX-Wi 1.01,2013-01-17 11:58:00,
2013-01-17 04:03:00,29.5,28.9,30.36,North,-999,0.0,0.0,98,0.00,,,-99.99,FreeWX-Wi 1.01,2013-01-17 12:03:00,
2013-01-17 04:08:00,29.5,28.9,30.36,North,-999,0.0,0.0,98,0.00,,,-99.99,FreeWX-Wi 1.01,2013-01-17 12:08:00,
2013-01-17 04:13:00,29.5,28.9,30.36,North,-999,0.0,0.0,98,0.00,,,-99.99,FreeWX-Wi 1.01,2013-01-17 12:13:00,
2013-01-17 04:18:00,29.5,28.9,30.36,North,-999,0.0,0.0,98,0.00,,,-99.99,FreeWX-Wi 1.01,2013-01-17 12:18:00,
2013-01-17 04:23:00,29.7,29.1,30.36,North,-999,0.0,0.0,98,0.00,,,-99.99,FreeWX-Wi 1.01,2013-01-17 12:23:00,
2013-01-17 04:28:00,29.7,29.1,30.36,North,-999,0.0,0.0,98,0.00,,,-99.99,FreeWX-Wi 1.01,2013-01-17 12:28:00,
2013-01-17 04:33:00,29.7,29.1,30.36,North,-999,0.0,0.0,98,0.00,,,-99.99,FreeWX-Wi 1.01,2013-01-17 12:33:00,
2013-01-17 04:38:00,29.7,29.1,30.36,North,-999,0.0,0.0,98,0.00,,,-99.99,FreeWX-Wi 1.01,2013-01-17 12:38:00,
2013-01-17 04:43:00,29.7,29.1,30.36,North,-999,0.0,2.2,98,0.00,,,-99.99,FreeWX-Wi 1.01,2013-01-17 12:43:00,
2013-01-17 04:48:00,29.7,29.1,30.36,North,-999,0.0,0.0,98,0.00,,,-99.99,FreeWX-Wi 1.01,2013-01-17 12:48:00,
2013-01-17 04:53:00,29.5,28.9,30.36,North,-999,0.0,0.0,98,0.00,,,-99.99,FreeWX-Wi 1.01,2013-01-17 12:53:00,
2013-01-17 04:58:00,29.1,28.6,30.36,North,-999,0.0,0.0,98,0.00,,,-99.99,FreeWX-Wi 1.01,2013-01-17 12:58:00,
2013-01-17 05:03:00,28.9,28.4,30.36,North,-999,0.0,0.0,98,0.00,,,-99.99,FreeWX-Wi 1.01,2013-01-17 13:03:00,
2013-01-17 05:08:00,29.1,28.6,30.36,North,-999,0.0,0.0,98,0.00,,,-99.99,FreeWX-Wi 1.01,2013-01-17 13:08:00,
2013-01-17 05:13:00,29.1,28.6,30.36,North,-999,0.0,0.0,98,0.00,,,-99.99,FreeWX-Wi 1.01,2013-01-17 13:13:00,
2013-01-17 05:18:00,29.1,28.6,30.36,North,-999,0.0,0.0,98,0.00,,,-99.99,FreeWX-Wi 1.01,2013-01-17 13:18:00,
2013-01-17 05:23:00,29.1,28.6,30.36,North,-999,0.0,0.0,98,0.00,,,-99.99,FreeWX-Wi 1.01,2013-01-17 13:23:00,
2013-01-17 05:28:00,28.9,28.4,30.36,North,-999,0.0,0.0,98,0.00,,,-99.99,FreeWX-Wi 1.01,2013-01-17 13:28:00,
2013-01-17 05:33:00,28.6,28.0,30.36,North,-999,0.0,0.0,98,0.00,,,-99.99,FreeWX-Wi 1.01,2013-01-17 13:33:00,
2013-01-17 05:38:00,28.4,27.9,30.36,North,-999,0.0,0.0,98,0.00,,,-99.99,FreeWX-Wi 1.01,2013-01-17 13:38:00,
2013-01-17 05:43:00,28.2,27.7,30.36,North,-999,0.0,0.0,98,0.00,,,-99.99,FreeWX-Wi 1.01,2013-01-17 13:43:00,
2013-01-17 05:48:00,28.2,27.7,30.36,North,-999,0.0,0.0,98,0.00,,,-99.99,FreeWX-Wi 1.01,2013-01-17 13:48:00,
2013-01-17 05:53:00,28.4,27.9,30.36,North,-999,0.0,0.0,98,0.00,,,-99.99,FreeWX-Wi 1.01,2013-01-17 13:53:00,
2013-01-17 05:58:00,28.6,28.0,30.33,North,-999,0.0,0.0,98,0.00,,,-99.99,FreeWX-Wi 1.01,2013-01-17 13:58:00,
2013-01-17 06:03:00,28.6,28.0,30.33,North,-999,0.0,0.0,98,0.00,,,-99.99,FreeWX-Wi 1.01,2013-01-17 14:03:00,
2013-01-17 06:08:00,28.8,28.2,30.33,North,-999,0.0,0.0,98,0.00,,,-99.99,FreeWX-Wi 1.01,2013-01-17 14:08:00,
2013-01-17 06:13:00,28.9,28.4,30.33,North,-999,0.0,0.0,98,0.00,,,-99.99,FreeWX-Wi 1.01,2013-01-17 14:13:00,
2013-01-17 06:18:00,29.1,28.6,30.33,North,-999,0.0,0.0,98,0.00,,,-99.99,FreeWX-Wi 1.01,2013-01-17 14:18:00,
2013-01-17 06:23:00,29.1,28.6,30.33,North,-999,0.0,0.0,98,0.00,,,-99.99,FreeWX-Wi 1.01,2013-01-17 14:23:00,
2013-01-17 06:28:00,29.3,28.8,30.33,North,-999,0.0,0.0,98,0.00,,,-99.99,FreeWX-Wi 1.01,2013-01-17 14:28:00,
2013-01-17 06:33:00,29.3,28.8,30.33,North,-999,0.0,0.0,98,0.00,,,-99.99,FreeWX-Wi 1.01,2013-01-17 14:33:00,
2013-01-17 06:38:00,29.5,28.9,30.33,North,-999,0.0,0.0,98,0.00,,,-99.99,FreeWX-Wi 1.01,2013-01-17 14:38:00,
2013-01-17 06:43:00,29.5,28.9,30.33,North,-999,0.0,0.0,98,0.00,,,-99.99,FreeWX-Wi 1.01,2013-01-17 14:43:00,
2013-01-17 06:48:00,29.5,28.9,30.33,North,-999,0.0,2.7,98,0.00,,,-99.99,FreeWX-Wi 1.01,2013-01-17 14:48:00,
2013-01-17 06:53:00,29.3,28.8,30.33,North,-999,0.0,0.0,98,0.00,,,-99.99,FreeWX-Wi 1.01,2013-01-17 14:53:00,
2013-01-17 06:58:00,29.5,28.9,30.33,North,-999,0.0,0.0,98,0.00,,,-99.99,FreeWX-Wi 1.01,2013-01-17 14:58:00,
2013-01-17 07:03:00,29.5,28.9,30.33,North,-999,0.0,0.0,98,0.00,,,-99.99,FreeWX-Wi 1.01,2013-01-17 15:03:00,
2013-01-17 07:08:00,29.5,28.9,30.33,North,-999,0.0,0.0,98,0.00,,,-99.99,FreeWX-Wi 1.01,2013-01-17 15:08:00,
2013-01-17 07:13:00,29.3,28.8,30.33,North,-999,0.0,0.0,98,0.00,,,-99.99,FreeWX-Wi 1.01,2013-01-17 15:13:00,
2013-01-17 07:18:00,29.3,28.8,30.33,North,-999,0.0,0.0,98,0.00,,,-99.99,FreeWX-Wi 1.01,2013-01-17 15:18:00,
2013-01-17 07:23:00,29.3,28.8,30.33,North,-999,0.0,0.0,98,0.00,,,-99.99,FreeWX-Wi 1.01,2013-01-17 15:23:00,
2013-01-17 07:28:00,29.1,28.6,30.33,North,-999,0.0,0.0,98,0.00,,,-99.99,FreeWX-Wi 1.01,2013-01-17 15:28:00,
2013-01-17 07:33:00,29.3,28.8,30.33,North,-999,0.0,0.0,98,0.00,,,-99.99,FreeWX-Wi 1.01,2013-01-17 15:33:00,
2013-01-17 07:38:00,29.3,28.8,30.33,North,-999,0.0,0.0,98,0.00,,,-99.99,FreeWX-Wi 1.01,2013-01-17 15:38:00,
2013-01-17 07:43:00,29.5,28.9,30.33,North,-999,0.0,0.0,98,0.00,,,-99.99,FreeWX-Wi 1.01,2013-01-17 15:43:00,
2013-01-17 07:48:00,29.5,28.9,30.33,North,-999,0.0,0.0,98,0.00,,,-99.99,FreeWX-Wi 1.01,2013-01-17 15:48:00,
2013-01-17 07:53:00,29.5,28.9,30.33,North,-999,0.0,0.0,98,0.00,,,-99.99,FreeWX-Wi 1.01,2013-01-17 15:53:00,
2013-01-17 07:58:00,29.7,29.1,30.33,North,-999,0.0,0.0,98,0.00,,,-99.99,FreeWX-Wi 1.01,2013-01-17 15:58:00,
2013-01-17 08:03:00,29.5,28.9,30.33,North,-999,0.0,0.0,98,0.00,,,-99.99,FreeWX-Wi 1.01,2013-01-17 16:03:00,
2013-01-17 08:08:00,29.7,29.1,30.33,North,-999,0.0,0.0,98,0.00,,,-99.99,FreeWX-Wi 1.01,2013-01-17 16:08:00,
2013-01-17 08:13:00,29.8,29.3,30.33,North,-999,0.0,0.0,98,0.00,,,-99.99,FreeWX-Wi 1.01,2013-01-17 16:13:00,
2013-01-17 08:18:00,30.0,29.5,30.33,North,-999,0.0,0.0,98,0.00,,,-99.99,FreeWX-Wi 1.01,2013-01-17 16:18:00,
2013-01-17 08:23:00,30.0,29.5,30.33,North,-999,0.0,2.2,98,0.00,,,-99.99,FreeWX-Wi 1.01,2013-01-17 16:23:00,
2013-01-17 08:28:00,30.0,29.5,30.33,North,-999,0.0,0.0,98,0.00,,,-99.99,FreeWX-Wi 1.01,2013-01-17 16:28:00,
2013-01-17 08:33:00,30.2,29.7,30.33,North,-999,0.0,0.0,98,0.00,,,-99.99,FreeWX-Wi 1.01,2013-01-17 16:33:00,
2013-01-17 08:38:00,30.2,29.7,30.33,North,-999,0.0,0.0,98,0.00,,,-99.99,FreeWX-Wi 1.01,2013-01-17 16:38:00,
2013-01-17 08:44:00,30.2,29.7,30.33,North,-999,0.0,0.0,98,0.00,,,-99.99,FreeWX-Wi 1.01,2013-01-17 16:44:00,
2013-01-17 08:49:00,30.2,29.7,30.33,North,-999,0.0,0.0,98,0.00,,,-99.99,FreeWX-Wi 1.01,2013-01-17 16:49:00,
2013-01-17 08:54:00,30.4,29.8,30.33,North,-999,0.0,0.0,98,0.00,,,-99.99,FreeWX-Wi 1.01,2013-01-17 16:54:00,
2013-01-17 08:59:00,30.2,29.7,30.36,North,-999,0.0,0.0,98,0.00,,,-99.99,FreeWX-Wi 1.01,2013-01-17 16:59:00,
2013-01-17 09:04:00,30.2,29.7,30.36,North,-999,0.0,0.0,98,0.00,,,-99.99,FreeWX-Wi 1.01,2013-01-17 17:04:00,
2013-01-17 09:09:00,30.4,29.8,30.36,North,-999,0.0,0.0,98,0.00,,,-99.99,FreeWX-Wi 1.01,2013-01-17 17:09:00,
2013-01-17 09:14:00,30.4,29.8,30.33,North,-999,0.0,0.0,98,0.00,,,-99.99,FreeWX-Wi 1.01,2013-01-17 17:14:00,
2013-01-17 09:19:00,30.6,30.0,30.33,North,-999,0.0,0.0,98,0.00,,,-99.99,FreeWX-Wi 1.01,2013-01-17 17:19:00,
2013-01-17 09:24:00,30.6,30.0,30.33,North,-999,0.0,0.0,98,0.00,,,-99.99,FreeWX-Wi 1.01,2013-01-17 17:24:00,
2013-01-17 09:29:00,30.9,30.4,30.33,North,-999,0.0,0.0,98,0.00,,,-99.99,FreeWX-Wi 1.01,2013-01-17 17:29:00,
2013-01-17 09:34:00,30.7,30.2,30.33,North,-999,0.0,3.1,98,0.00,,,-99.99,FreeWX-Wi 1.01,2013-01-17 17:34:00,
2013-01-17 09:39:00,30.9,30.4,30.33,North,-999,0.0,3.6,98,0.00,,,-99.99,FreeWX-Wi 1.01,2013-01-17 17:39:00,
2013-01-17 09:44:00,30.9,30.4,30.33,North,-999,0.0,2.7,98,0.00,,,-99.99,FreeWX-Wi 1.01,2013-01-17 17:44:00,
2013-01-17 09:49:00,31.1,30.6,30.33,North,-999,0.0,0.0,98,0.00,,,-99.99,FreeWX-Wi 1.01,2013-01-17 17:49:00,
2013-01-17 09:54:00,31.3,30.7,30.33,North,-999,0.0,0.0,98,0.00,,,-99.99,FreeWX-Wi 1.01,2013-01-17 17:54:00,
2013-01-17 09:59:00,31.5,30.9,30.33,North,-999,0.0,0.0,98,0.00,,,-99.99,FreeWX-Wi 1.01,2013-01-17 17:59:00,
2013-01-17 10:04:00,31.6,31.1,30.33,North,-999,0.0,0.0,98,0.00,,,-99.99,FreeWX-Wi 1.01,2013-01-17 18:04:00,
2013-01-17 10:09:00,32.0,31.5,30.33,North,-999,0.0,0.0,98,0.00,,,-99.99,FreeWX-Wi 1.01,2013-01-17 18:09:00,
2013-01-17 10:14:00,32.2,31.6,30.33,North,-999,0.0,0.0,98,0.00,,,-99.99,FreeWX-Wi 1.01,2013-01-17 18:14:00,
2013-01-17 10:19:00,32.4,31.8,30.33,North,-999,0.0,0.0,98,0.00,,,-99.99,FreeWX-Wi 1.01,2013-01-17 18:19:00,
2013-01-17 10:24:00,32.5,32.0,30.33,North,-999,0.0,0.0,98,0.00,,,-99.99,FreeWX-Wi 1.01,2013-01-17 18:24:00,
2013-01-17 10:29:00,32.5,32.0,30.33,North,-999,0.0,0.0,98,0.00,,,-99.99,FreeWX-Wi 1.01,2013-01-17 18:29:00,
2013-01-17 10:34:00,33.1,32.5,30.33,North,-999,0.0,0.0,98,0.00,,,-99.99,FreeWX-Wi 1.01,2013-01-17 18:34:00,
2013-01-17 10:39:00,33.4,32.9,30.33,North,-999,0.0,0.0,98,0.00,,,-99.99,FreeWX-Wi 1.01,2013-01-17 18:39:00,
2013-01-17 10:44:00,33.6,33.1,30.33,North,-999,0.0,0.0,98,0.00,,,-99.99,FreeWX-Wi 1.01,2013-01-17 18:44:00,
2013-01-17 10:49:00,33.8,33.3,30.33,North,-999,0.0,0.0,98,0.00,,,-99.99,FreeWX-Wi 1.01,2013-01-17 18:49:00,
2013-01-17 10:54:00,33.8,33.3,30.33,North,-999,0.0,0.0,98,0.00,,,-99.99,FreeWX-Wi 1.01,2013-01-17 18:54:00,
2013-01-17 10:59:00,33.8,33.3,30.33,North,-999,0.0,0.0,98,0.00,,,-99.99,FreeWX-Wi 1.01,2013-01-17 18:59:00,
2013-01-17 11:04:00,33.6,33.1,30.33,North,-999,0.0,0.0,98,0.00,,,-99.99,FreeWX-Wi 1.01,2013-01-17 19:04:00,
2013-01-17 11:09:00,33.8,33.3,30.33,North,-999,0.0,0.0,98,0.00,,,-99.99,FreeWX-Wi 1.01,2013-01-17 19:09:00,
2013-01-17 11:14:00,34.2,33.6,30.33,North,-999,0.0,0.0,98,0.00,,,-99.99,FreeWX-Wi 1.01,2013-01-17 19:14:00,
2013-01-17 11:19:00,34.0,33.4,30.33,North,-999,0.0,0.0,98,0.00,,,-99.99,FreeWX-Wi 1.01,2013-01-17 19:19:00,
2013-01-17 11:24:00,34.2,33.6,30.33,North,-999,0.0,3.1,98,0.00,,,-99.99,FreeWX-Wi 1.01,2013-01-17 19:24:00,
2013-01-17 11:29:00,34.3,33.8,30.33,North,-999,0.0,2.7,98,0.00,,,-99.99,FreeWX-Wi 1.01,2013-01-17 19:29:00,
2013-01-17 11:34:00,34.5,34.0,30.33,North,-999,0.0,2.2,98,0.00,,,-99.99,FreeWX-Wi 1.01,2013-01-17 19:34:00,
2013-01-17 11:39:00,34.9,34.3,30.33,North,-999,0.0,0.0,98,0.00,,,-99.99,FreeWX-Wi 1.01,2013-01-17 19:39:00,
2013-01-17 11:44:00,35.1,34.5,30.30,North,-999,0.0,0.0,98,0.00,,,-99.99,FreeWX-Wi 1.01,2013-01-17 19:44:00,
2013-01-17 11:49:00,34.9,34.3,30.30,North,-999,0.0,0.0,98,0.00,,,-99.99,FreeWX-Wi 1.01,2013-01-17 19:49:00,
2013-01-17 11:54:00,34.9,34.3,30.30,North,-999,0.0,0.0,98,0.00,,,-99.99,FreeWX-Wi 1.01,2013-01-17 19:54:00,
2013-01-17 11:59:00,35.2,34.7,30.30,North,-999,0.0,0.0,98,0.00,,,-99.99,FreeWX-Wi 1.01,2013-01-17 19:59:00,
2013-01-17 12:04:00,35.1,34.5,30.30,North,-999,0.0,0.0,98,0.00,,,-99.99,FreeWX-Wi 1.01,2013-01-17 20:04:00,
2013-01-17 12:09:00,35.2,34.7,30.30,North,-999,0.0,0.0,98,0.00,,,-99.99,FreeWX-Wi 1.01,2013-01-17 20:09:00,
2013-01-17 12:14:00,35.2,34.7,30.30,North,-999,0.0,2.2,98,0.00,,,-99.99,FreeWX-Wi 1.01,2013-01-17 20:14:00,
2013-01-17 12:19:00,35.4,34.9,30.30,North,-999,0.0,2.7,98,0.00,,,-99.99,FreeWX-Wi 1.01,2013-01-17 20:19:00,
2013-01-17 12:24:00,35.4,34.9,30.30,North,-999,0.0,2.2,98,0.00,,,-99.99,FreeWX-Wi 1.01,2013-01-17 20:24:00,
2013-01-17 12:29:00,35.6,35.1,30.30,North,-999,0.0,0.0,98,0.00,,,-99.99,FreeWX-Wi 1.01,2013-01-17 20:29:00,
2013-01-17 12:34:00,35.8,35.2,30.30,North,-999,0.0,0.0,98,0.00,,,-99.99,FreeWX-Wi 1.01,2013-01-17 20:34:00,
2013-01-17 12:39:00,36.3,35.8,30.30,North,-999,0.0,0.0,98,0.00,,,-99.99,FreeWX-Wi 1.01,2013-01-17 20:39:00,
2013-01-17 12:44:00,36.3,35.8,30.27,North,-999,0.0,0.0,98,0.00,,,-99.99,FreeWX-Wi 1.01,2013-01-17 20:44:00,
2013-01-17 12:49:00,36.3,35.8,30.27,North,-999,0.0,0.0,98,0.00,,,-99.99,FreeWX-Wi 1.01,2013-01-17 20:49:00,
2013-01-17 12:54:00,36.5,36.0,30.27,North,-999,0.0,0.0,98,0.00,,,-99.99,FreeWX-Wi 1.01,2013-01-17 20:54:00,
2013-01-17 12:59:00,36.3,35.8,30.27,North,-999,0.0,0.0,98,0.00,,,-99.99,FreeWX-Wi 1.01,2013-01-17 20:59:00,
2013-01-17 13:04:00,36.5,36.0,30.27,North,-999,0.0,0.0,98,0.00,,,-99.99,FreeWX-Wi 1.01,2013-01-17 21:04:00,
2013-01-17 13:09:00,36.7,36.1,30.27,North,-999,0.0,0.0,98,0.00,,,-99.99,FreeWX-Wi 1.01,2013-01-17 21:09:00,
2013-01-17 13:14:00,37.0,36.5,30.27,North,-999,0.0,0.0,98,0.00,,,-99.99,FreeWX-Wi 1.01,2013-01-17 21:14:00,
2013-01-17 13:19:00,37.0,36.5,30.27,North,-999,0.0,0.0,98,0.00,,,-99.99,FreeWX-Wi 1.01,2013-01-17 21:19:00,
2013-01-17 13:24:00,37.2,36.7,30.27,North,-999,0.0,0.0,98,0.00,,,-99.99,FreeWX-Wi 1.01,2013-01-17 21:24:00,
2013-01-17 13:29:00,37.6,37.0,30.27,North,-999,0.0,2.7,98,0.00,,,-99.99,FreeWX-Wi 1.01,2013-01-17 21:29:00,
2013-01-17 13:34:00,37.8,37.2,30.27,North,-999,0.0,0.0,98,0.00,,,-99.99,FreeWX-Wi 1.01,2013-01-17 21:34:00,
2013-01-17 13:39:00,37.4,36.9,30.27,North,-999,0.0,0.0,98,0.00,,,-99.99,FreeWX-Wi 1.01,2013-01-17 21:39:00,
2013-01-17 13:44:00,37.0,36.5,30.27,North,-999,0.0,0.0,98,0.00,,,-99.99,FreeWX-Wi 1.01,2013-01-17 21:44:00,
2013-01-17 13:49:00,36.9,36.3,30.27,North,-999,0.0,0.0,98,0.00,,,-99.99,FreeWX-Wi 1.01,2013-01-17 21:49:00,
2013-01-17 13:54:00,36.7,36.1,30.27,North,-999,0.0,3.1,98,0.00,,,-99.99,FreeWX-Wi 1.01,2013-01-17 21:54:00,
2013-01-17 13:59:00,36.3,35.8,30.27,North,-999,0.0,2.2,98,0.00,,,-99.99,FreeWX-Wi 1.01,2013-01-17 21:59:00,
2013-01-17 14:04:00,36.0,35.4,30.27,North,-999,0.0,3.6,98,0.00,,,-99.99,FreeWX-Wi 1.01,2013-01-17 22:04:00,
2013-01-17 14:09:00,36.0,35.4,30.27,North,-999,0.0,0.0,98,0.00,,,-99.99,FreeWX-Wi 1.01,2013-01-17 22:09:00,
2013-01-17 14:14:00,36.1,35.6,30.24,North,-999,0.0,0.0,98,0.00,,,-99.99,FreeWX-Wi 1.01,2013-01-17 22:14:00,
2013-01-17 14:19:00,36.1,35.6,30.24,North,-999,0.0,0.0,98,0.00,,,-99.99,FreeWX-Wi 1.01,2013-01-17 22:19:00,
2013-01-17 14:24:00,36.3,35.8,30.24,North,-999,0.0,0.0,98,0.00,,,-99.99,FreeWX-Wi 1.01,2013-01-17 22:24:00,
2013-01-17 14:29:00,36.5,36.0,30.24,North,-999,0.0,3.1,98,0.00,,,-99.99,FreeWX-Wi 1.01,2013-01-17 22:29:00,
2013-01-17 14:34:00,36.5,36.0,30.24,North,-999,0.0,0.0,98,0.00,,,-99.99,FreeWX-Wi 1.01,2013-01-17 22:34:00,
2013-01-17 14:39:00,36.7,36.1,30.24,North,-999,0.0,0.0,98,0.00,,,-99.99,FreeWX-Wi 1.01,2013-01-17 22:39:00,
2013-01-17 14:44:00,36.7,36.1,30.24,North,-999,0.0,3.6,98,0.00,,,-99.99,FreeWX-Wi 1.01,2013-01-17 22:44:00,
2013-01-17 14:49:00,36.7,36.1,30.24,North,-999,0.0,0.0,98,0.00,,,-99.99,FreeWX-Wi 1.01,2013-01-17 22:49:00,
2013-01-17 14:54:00,36.9,36.3,30.24,North,-999,0.0,0.0,98,0.00,,,-99.99,FreeWX-Wi 1.01,2013-01-17 22:54:00,
2013-01-17 14:59:00,36.9,36.3,30.24,North,-999,0.0,0.0,98,0.00,,,-99.99,FreeWX-Wi 1.01,2013-01-17 22:59:00,
2013-01-17 15:04:00,36.7,36.1,30.24,North,-999,0.0,0.0,98,0.00,,,-99.99,FreeWX-Wi 1.01,2013-01-17 23:04:00,
2013-01-17 15:09:00,36.7,36.1,30.24,North,-999,0.0,0.0,98,0.00,,,-99.99,FreeWX-Wi 1.01,2013-01-17 23:09:00,
2013-01-17 15:14:00,36.7,36.1,30.24,North,-999,0.0,0.0,98,0.00,,,-99.99,FreeWX-Wi 1.01,2013-01-17 23:14:00,
2013-01-17 15:19:00,36.7,36.1,30.24,North,-999,0.0,0.0,98,0.00,,,-99.99,FreeWX-Wi 1.01,2013-01-17 23:19:00,
2013-01-17 15:24:00,36.7,36.1,30.24,North,-999,0.0,0.0,98,0.00,,,-99.99,FreeWX-Wi 1.01,2013-01-17 23:24:00,
2013-01-17 15:29:00,36.3,35.8,30.21,North,-999,0.0,0.0,98,0.00,,,-99.99,FreeWX-Wi 1.01,2013-01-17 23:29:00,
2013-01-17 15:34:00,36.3,35.8,30.21,North,-999,0.0,0.0,98,0.00,,,-99.99,FreeWX-Wi 1.01,2013-01-17 23:34:00,
2013-01-17 15:39:00,36.3,35.8,30.21,North,-999,0.0,0.0,98,0.00,,,-99.99,FreeWX-Wi 1.01,2013-01-17 23:39:00,
2013-01-17 15:44:00,36.1,35.6,30.21,North,-999,0.0,0.0,98,0.00,,,-99.99,FreeWX-Wi 1.01,2013-01-17 23:44:00,
2013-01-17 15:49:00,36.0,35.4,30.21,North,-999,0.0,0.0,98,0.00,,,-99.99,FreeWX-Wi 1.01,2013-01-17 23:49:00,
2013-01-17 15:54:00,35.8,35.2,30.21,North,-999,0.0,0.0,98,0.00,,,-99.99,FreeWX-Wi 1.01,2013-01-17 23:54:00,
2013-01-17 15:59:00,36.0,35.4,30.21,North,-999,0.0,0.0,98,0.00,,,-99.99,FreeWX-Wi 1.01,2013-01-17 23:59:00,
2013-01-17 16:04:00,35.8,35.2,30.21,North,-999,0.0,0.0,98,0.00,,,-99.99,FreeWX-Wi 1.01,2013-01-18 00:04:00,
2013-01-17 16:09:00,35.6,35.1,30.21,North,-999,0.0,0.0,98,0.00,,,-99.99,FreeWX-Wi 1.01,2013-01-18 00:09:00,
2013-01-17 16:14:00,35.6,35.1,30.21,North,-999,0.0,0.0,98,0.00,,,-99.99,FreeWX-Wi 1.01,2013-01-18 00:14:00,
2013-01-17 16:19:00,35.6,35.1,30.21,North,-999,0.0,0.0,98,0.00,,,-99.99,FreeWX-Wi 1.01,2013-01-18 00:19:00,
2013-01-17 16:24:00,35.6,35.1,30.21,North,-999,0.0,0.0,98,0.00,,,-99.99,FreeWX-Wi 1.01,2013-01-18 00:24:00,
2013-01-17 16:29:00,35.4,34.9,30.24,North,-999,0.0,0.0,98,0.00,,,-99.99,FreeWX-Wi 1.01,2013-01-18 00:29:00,
2013-01-17 16:34:00,35.2,34.7,30.24,North,-999,0.0,0.0,98,0.00,,,-99.99,FreeWX-Wi 1.01,2013-01-18 00:34:00,
2013-01-17 16:39:00,35.2,34.7,30.24,North,-999,0.0,0.0,98,0.00,,,-99.99,FreeWX-Wi 1.01,2013-01-18 00:39:00,
2013-01-17 16:44:00,35.2,34.7,30.24,North,-999,0.0,0.0,98,0.00,,,-99.99,FreeWX-Wi 1.01,2013-01-18 00:44:00,
2013-01-17 16:49:00,35.2,34.7,30.24,North,-999,0.0,0.0,98,0.00,,,-99.99,FreeWX-Wi 1.01,2013-01-18 00:49:00,
2013-01-17 16:54:00,35.1,34.5,30.24,North,-999,0.0,0.0,98,0.00,,,-99.99,FreeWX-Wi 1.01,2013-01-18 00:54:00,
2013-01-17 16:59:00,35.1,34.5,30.21,North,-999,0.0,0.0,98,0.00,,,-99.99,FreeWX-Wi 1.01,2013-01-18 00:59:00,
2013-01-17 17:04:00,35.1,34.5,30.21,North,-999,0.0,0.0,98,0.00,,,-99.99,FreeWX-Wi 1.01,2013-01-18 01:04:00,
2013-01-17 17:09:00,34.9,34.3,30.21,North,-999,0.0,0.0,98,0.00,,,-99.99,FreeWX-Wi 1.01,2013-01-18 01:09:00,
2013-01-17 17:14:00,34.7,34.2,30.21,North,-999,0.0,0.0,98,0.00,,,-99.99,FreeWX-Wi 1.01,2013-01-18 01:14:00,
2013-01-17 17:19:00,34.5,34.0,30.21,North,-999,0.0,0.0,98,0.00,,,-99.99,FreeWX-Wi 1.01,2013-01-18 01:19:00,
2013-01-17 17:24:00,34.3,33.8,30.21,North,-999,0.0,0.0,98,0.00,,,-99.99,FreeWX-Wi 1.01,2013-01-18 01:24:00,
2013-01-17 17:29:00,34.2,33.6,30.21,North,-999,0.0,0.0,98,0.00,,,-99.99,FreeWX-Wi 1.01,2013-01-18 01:29:00,
2013-01-17 17:34:00,34.2,33.6,30.21,North,-999,0.0,0.0,98,0.00,,,-99.99,FreeWX-Wi 1.01,2013-01-18 01:34:00,
2013-01-17 17:39:00,34.0,33.4,30.21,North,-999,0.0,0.0,98,0.00,,,-99.99,FreeWX-Wi 1.01,2013-01-18 01:39:00,
2013-01-17 17:44:00,34.0,33.4,30.21,North,-999,0.0,0.0,98,0.00,,,-99.99,FreeWX-Wi 1.01,2013-01-18 01:44:00,
2013-01-17 17:49:00,34.0,33.4,30.21,North,-999,0.0,0.0,98,0.00,,,-99.99,FreeWX-Wi 1.01,2013-01-18 01:49:00,
2013-01-17 17:54:00,34.0,33.4,30.21,North,-999,0.0,2.7,98,0.00,,,-99.99,FreeWX-Wi 1.01,2013-01-18 01:54:00,
2013-01-17 17:59:00,34.2,33.6,30.21,North,-999,0.0,0.0,98,0.00,,,-99.99,FreeWX-Wi 1.01,2013-01-18 01:59:00,
2013-01-17 18:04:00,34.2,33.6,30.21,North,-999,0.0,2.7,98,0.00,,,-99.99,FreeWX-Wi 1.01,2013-01-18 02:04:00,
2013-01-17 18:09:00,34.3,33.8,30.21,North,-999,0.0,2.2,98,0.00,,,-99.99,FreeWX-Wi 1.01,2013-01-18 02:09:00,
2013-01-17 18:14:00,34.3,33.8,30.21,North,-999,0.0,0.0,98,0.00,,,-99.99,FreeWX-Wi 1.01,2013-01-18 02:14:00,
2013-01-17 18:19:00,34.3,33.8,30.21,North,-999,0.0,0.0,98,0.00,,,-99.99,FreeWX-Wi 1.01,2013-01-18 02:19:00,
2013-01-17 18:24:00,34.3,33.8,30.21,North,-999,0.0,0.0,98,0.00,,,-99.99,FreeWX-Wi 1.01,2013-01-18 02:24:00,
2013-01-17 18:29:00,34.3,33.8,30.21,North,-999,0.0,2.2,98,0.00,,,-99.99,FreeWX-Wi 1.01,2013-01-18 02:29:00,
2013-01-17 18:34:00,34.3,33.8,30.21,North,-999,0.0,0.0,98,0.00,,,-99.99,FreeWX-Wi 1.01,2013-01-18 02:34:00,
2013-01-17 18:39:00,34.3,33.8,30.21,North,-999,0.0,0.0,98,0.00,,,-99.99,FreeWX-Wi 1.01,2013-01-18 02:39:00,
2013-01-17 18:44:00,34.3,33.8,30.21,North,-999,0.0,0.0,98,0.00,,,-99.99,FreeWX-Wi 1.01,2013-01-18 02:44:00,
2013-01-17 18:49:00,34.2,33.6,30.21,North,-999,0.0,2.7,98,0.00,,,-99.99,FreeWX-Wi 1.01,2013-01-18 02:49:00,
2013-01-17 18:54:00,34.2,33.6,30.21,North,-999,0.0,0.0,98,0.00,,,-99.99,FreeWX-Wi 1.01,2013-01-18 02:54:00,
2013-01-17 19:00:00,34.2,33.6,30.21,North,-999,0.0,2.7,98,0.00,,,-99.99,FreeWX-Wi 1.01,2013-01-18 03:00:00,
2013-01-17 19:05:00,34.0,33.4,30.21,North,-999,0.0,0.0,98,0.00,,,-99.99,FreeWX-Wi 1.01,2013-01-18 03:05:00,
2013-01-17 19:10:00,34.0,33.4,30.21,North,-999,0.0,2.7,98,0.00,,,-99.99,FreeWX-Wi 1.01,2013-01-18 03:10:00,
2013-01-17 19:15:00,34.0,33.4,30.21,North,-999,0.0,2.7,98,0.00,,,-99.99,FreeWX-Wi 1.01,2013-01-18 03:15:00,
2013-01-17 19:20:00,33.8,33.3,30.21,North,-999,0.0,0.0,98,0.00,,,-99.99,FreeWX-Wi 1.01,2013-01-18 03:20:00,
2013-01-17 19:25:00,33.8,33.3,30.21,North,-999,0.0,0.0,98,0.00,,,-99.99,FreeWX-Wi 1.01,2013-01-18 03:25:00,
2013-01-17 19:30:00,33.8,33.3,30.21,North,-999,0.0,0.0,98,0.00,,,-99.99,FreeWX-Wi 1.01,2013-01-18 03:30:00,
2013-01-17 19:35:00,33.6,33.1,30.21,North,-999,0.0,0.0,98,0.00,,,-99.99,FreeWX-Wi 1.01,2013-01-18 03:35:00,
2013-01-17 19:40:00,33.6,33.1,30.21,North,-999,0.0,0.0,98,0.00,,,-99.99,FreeWX-Wi 1.01,2013-01-18 03:40:00,
2013-01-17 19:45:00,33.8,33.3,30.21,North,-999,0.0,0.0,98,0.00,,,-99.99,FreeWX-Wi 1.01,2013-01-18 03:45:00,
2013-01-17 19:50:00,33.6,33.1,30.21,North,-999,0.0,0.0,98,0.00,,,-99.99,FreeWX-Wi 1.01,2013-01-18 03:50:00,
2013-01-17 19:55:00,33.6,33.1,30.21,North,-999,0.0,0.0,98,0.00,,,-99.99,FreeWX-Wi 1.01,2013-01-18 03:55:00,
2013-01-17 20:00:00,33.4,32.9,30.21,North,-999,0.0,0.0,98,0.00,,,-99.99,FreeWX-Wi 1.01,2013-01-18 04:00:00,
2013-01-17 20:05:00,33.3,32.7,30.21,North,-999,0.0,0.0,98,0.00,,,-99.99,FreeWX-Wi 1.01,2013-01-18 04:05:00,
2013-01-17 20:10:00,33.3,32.7,30.21,North,-999,0.0,0.0,98,0.00,,,-99.99,FreeWX-Wi 1.01,2013-01-18 04:10:00,
2013-01-17 20:15:00,33.1,32.5,30.21,North,-999,0.0,0.0,98,0.00,,,-99.99,FreeWX-Wi 1.01,2013-01-18 04:15:00,
2013-01-17 20:20:00,32.9,32.4,30.21,North,-999,0.0,0.0,98,0.00,,,-99.99,FreeWX-Wi 1.01,2013-01-18 04:20:00,
2013-01-17 20:25:00,32.9,32.4,30.21,North,-999,0.0,0.0,98,0.00,,,-99.99,FreeWX-Wi 1.01,2013-01-18 04:25:00,
2013-01-17 20:30:00,32.7,32.2,30.21,North,-999,0.0,0.0,98,0.00,,,-99.99,FreeWX-Wi 1.01,2013-01-18 04:30:00,
2013-01-17 20:35:00,32.7,32.2,30.21,North,-999,0.0,0.0,98,0.00,,,-99.99,FreeWX-Wi 1.01,2013-01-18 04:35:00,
2013-01-17 20:40:00,32.9,32.4,30.21,North,-999,0.0,0.0,98,0.00,,,-99.99,FreeWX-Wi 1.01,2013-01-18 04:40:00,
2013-01-17 20:45:00,32.9,32.4,30.21,North,-999,0.0,0.0,98,0.00,,,-99.99,FreeWX-Wi 1.01,2013-01-18 04:45:00,
2013-01-17 20:50:00,32.9,32.4,30.21,North,-999,0.0,0.0,98,0.00,,,-99.99,FreeWX-Wi 1.01,2013-01-18 04:50:00,
2013-01-17 20:55:00,32.9,32.4,30.21,North,-999,0.0,0.0,98,0.00,,,-99.99,FreeWX-Wi 1.01,2013-01-18 04:55:00,
2013-01-17 21:05:00,32.7,32.2,30.21,North,-999,0.0,0.0,98,0.00,,,-99.99,FreeWX-Wi 1.01,2013-01-18 05:05:00,
2013-01-17 21:10:00,32.5,32.0,30.21,North,-999,0.0,0.0,98,0.00,,,-99.99,FreeWX-Wi 1.01,2013-01-18 05:10:00,
2013-01-17 21:15:00,32.4,31.8,30.21,North,-999,0.0,0.0,98,0.00,,,-99.99,FreeWX-Wi 1.01,2013-01-18 05:15:00,
2013-01-17 21:20:00,32.2,31.6,30.21,North,-999,0.0,0.0,98,0.00,,,-99.99,FreeWX-Wi 1.01,2013-01-18 05:20:00,
2013-01-17 21:25:00,32.2,31.6,30.21,North,-999,0.0,0.0,98,0.00,,,-99.99,FreeWX-Wi 1.01,2013-01-18 05:25:00,
2013-01-17 21:30:00,32.2,31.6,30.21,North,-999,0.0,0.0,98,0.00,,,-99.99,FreeWX-Wi 1.01,2013-01-18 05:30:00,
2013-01-17 21:35:00,32.2,31.6,30.21,North,-999,0.0,0.0,98,0.00,,,-99.99,FreeWX-Wi 1.01,2013-01-18 05:35:00,
2013-01-17 21:40:00,32.4,31.8,30.21,North,-999,0.0,0.0,98,0.00,,,-99.99,FreeWX-Wi 1.01,2013-01-18 05:40:00,
2013-01-17 21:45:00,32.4,31.8,30.21,North,-999,0.0,0.0,98,0.00,,,-99.99,FreeWX-Wi 1.01,2013-01-18 05:45:00,
2013-01-17 21:50:00,32.5,32.0,30.21,North,-999,0.0,0.0,98,0.00,,,-99.99,FreeWX-Wi 1.01,2013-01-18 05:50:00,
2013-01-17 21:55:00,32.5,32.0,30.21,North,-999,0.0,0.0,98,0.00,,,-99.99,FreeWX-Wi 1.01,2013-01-18 05:55:00,
2013-01-17 22:00:00,32.7,32.2,30.18,North,-999,0.0,0.0,98,0.00,,,-99.99,FreeWX-Wi 1.01,2013-01-18 06:00:00,
2013-01-17 22:05:00,32.7,32.2,30.18,North,-999,0.0,0.0,98,0.00,,,-99.99,FreeWX-Wi 1.01,2013-01-18 06:05:00,
2013-01-17 22:10:00,32.7,32.2,30.18,North,-999,0.0,0.0,98,0.00,,,-99.99,FreeWX-Wi 1.01,2013-01-18 06:10:00,
2013-01-17 22:15:00,32.7,32.2,30.18,North,-999,0.0,0.0,98,0.00,,,-99.99,FreeWX-Wi 1.01,2013-01-18 06:15:00,
2013-01-17 22:20:00,32.7,32.2,30.18,North,-999,0.0,0.0,98,0.00,,,-99.99,FreeWX-Wi 1.01,2013-01-18 06:20:00,
2013-01-17 22:25:00,32.7,32.2,30.18,North,-999,0.0,0.0,98,0.00,,,-99.99,FreeWX-Wi 1.01,2013-01-18 06:25:00,
2013-01-17 22:30:00,32.7,32.2,30.18,North,-999,0.0,0.0,98,0.00,,,-99.99,FreeWX-Wi 1.01,2013-01-18 06:30:00,
2013-01-17 22:35:00,32.7,32.2,30.18,North,-999,0.0,0.0,98,0.00,,,-99.99,FreeWX-Wi 1.01,2013-01-18 06:35:00,
2013-01-17 22:40:00,32.5,32.0,30.18,North,-999,0.0,2.2,98,0.00,,,-99.99,FreeWX-Wi 1.01,2013-01-18 06:40:00,
2013-01-17 22:45:00,32.5,32.0,30.18,North,-999,0.0,2.2,98,0.00,,,-99.99,FreeWX-Wi 1.01,2013-01-18 06:45:00,
2013-01-17 22:50:00,32.5,32.0,30.18,North,-999,0.0,0.0,98,0.00,,,-99.99,FreeWX-Wi 1.01,2013-01-18 06:50:00,
2013-01-17 22:55:00,32.5,32.0,30.18,North,-999,0.0,0.0,98,0.00,,,-99.99,FreeWX-Wi 1.01,2013-01-18 06:55:00,
2013-01-17 23:00:00,32.7,32.2,30.18,North,-999,0.0,0.0,98,0.00,,,-99.99,FreeWX-Wi 1.01,2013-01-18 07:00:00,
2013-01-17 23:05:00,32.7,32.2,30.18,North,-999,0.0,3.6,98,0.00,,,-99.99,FreeWX-Wi 1.01,2013-01-18 07:05:00,
2013-01-17 23:10:00,32.7,32.2,30.18,North,-999,0.0,3.1,98,0.00,,,-99.99,FreeWX-Wi 1.01,2013-01-18 07:10:00,
2013-01-17 23:15:00,32.7,32.2,30.18,North,-999,0.0,2.2,98,0.00,,,-99.99,FreeWX-Wi 1.01,2013-01-18 07:15:00,
2013-01-17 23:20:00,32.7,32.2,30.18,North,-999,0.0,0.0,98,0.00,,,-99.99,FreeWX-Wi 1.01,2013-01-18 07:20:00,
2013-01-17 23:25:00,32.7,32.2,30.18,North,-999,0.0,2.2,98,0.00,,,-99.99,FreeWX-Wi 1.01,2013-01-18 07:25:00,
2013-01-17 23:30:00,32.5,32.0,30.18,North,-999,0.0,0.0,98,0.00,,,-99.99,FreeWX-Wi 1.01,2013-01-18 07:30:00,
2013-01-17 23:35:00,32.5,32.0,30.18,North,-999,0.0,0.0,98,0.00,,,-99.99,FreeWX-Wi 1.01,2013-01-18 07:35:00,
2013-01-17 23:40:00,32.5,32.0,30.18,North,-999,0.0,3.6,98,0.00,,,-99.99,FreeWX-Wi 1.01,2013-01-18 07:40:00,
2013-01-17 23:45:00,32.4,31.8,30.18,North,-999,0.0,2.7,98,0.00,,,-99.99,FreeWX-Wi 1.01,2013-01-18 07:45:00,
2013-01-17 23:50:00,32.2,31.6,30.18,North,-999,0.0,0.0,98,0.00,,,-99.99,FreeWX-Wi 1.01,2013-01-18 07:50:00,
2013-01-17 23:55:00,32.2,31.6,30.18,North,-999,0.0,0.0,98,0.00,,,-99.99,FreeWX-Wi 1.01,2013-01-18 07:55:00,